Jackson, MN

1:16 AM CST on February 10, 2016 (GMT -0600)
Jackson Municipal

Weather History for KMJQ - January, 2014

Change the Weather History Date:

Monday, January 20, 2014

  Actual Average Record
Temperature  
Mean Temperature 12 °F -  
Max Temperature 32 °F 22 °F 37 °F (2002)
Min Temperature -7 °F 6 °F -11 °F (2000)
Degree Days  
Heating Degree Days 52    
Moisture  
Dew Point 15 °F    
Average Humidity 82    
Maximum Humidity 93    
Minimum Humidity 71    
Precipitation  
Precipitation 0.00 in - - ()
Sea Level Pressure  
Sea Level Pressure 30.02 in    
Wind  
Wind Speed 10 mph (NNW)    
Max Wind Speed 26 mph    
Max Gust Speed 34 mph    
Visibility 6 miles    
Events Snow    
Averages and records for this station are not official NWS values.
T = Trace of Precipitation, MM = Missing Value Source: NWS Daily Summary

Daily Weather History Graph

Daily Weather History Graph

Search for Another Location

Airport or City:

Trip Planner

Search our weather history database for the weather conditions in past years. The results will help you decide how hot, cold, wet, or windy it might be!

Date:

Astronomy

Jan. 20, 2014 Rise Set
Actual Time 7:47 AM CST 5:15 PM CST
Civil Twilight 7:15 AM CST 5:46 PM CST
Nautical Twilight 6:40 AM CST 6:21 PM CST
Astronomical Twilight 6:06 AM CST 6:55 PM CST
Moon 10:01 PM CST (1/20) 9:38 AM CST (1/20)
Length of Visible Light 10h 30m
Length of Day
9h 27m
Waning Gibbous, 82% of the Moon is Illuminated
Jan 20
Waning Gibbous
Jan 23
Last Quarter
Jan 30
New
Feb 6
First Quarter
Feb 14
Full

Hourly Weather History & Observations

Time (CST) Temp. Windchill Dew Point Humidity Pressure Visibility Wind Dir Wind Speed Gust Speed Precip Events Conditions
12:13 AM 28.4 °F 24.6 °F 26.6 °F 93% 29.75 in 7.0 mi West 3.5 mph - N/A   Clear
12:33 AM 28.4 °F 23.3 °F 26.6 °F 93% 29.75 in 7.0 mi West 4.6 mph - N/A   Clear
12:53 AM 28.4 °F 24.6 °F 26.6 °F 93% 29.75 in 5.0 mi West 3.5 mph - N/A   Clear
1:13 AM 28.4 °F 23.3 °F 26.6 °F 93% 29.76 in 7.0 mi West 4.6 mph - N/A   Clear
1:33 AM 28.4 °F 21.2 °F 26.6 °F 93% 29.76 in 10.0 mi WNW 6.9 mph - N/A   Clear
1:52 AM 30.2 °F 22.6 °F 26.6 °F 86% 29.78 in 10.0 mi WNW 8.1 mph - N/A   Clear
2:13 AM 32.0 °F 24.2 °F 28.4 °F 87% 29.79 in 10.0 mi WNW 9.2 mph - N/A   Scattered Clouds
2:33 AM 32.0 °F 24.8 °F 26.6 °F 80% 29.79 in 10.0 mi NW 8.1 mph - N/A   Mostly Cloudy
2:52 AM 32.0 °F 24.8 °F 26.6 °F 80% 29.80 in 10.0 mi NW 8.1 mph - N/A   Overcast
3:13 AM 32.0 °F 24.8 °F 26.6 °F 80% 29.81 in 10.0 mi NW 8.1 mph - N/A   Mostly Cloudy
3:33 AM 30.2 °F 23.4 °F 26.6 °F 86% 29.81 in 10.0 mi NW 6.9 mph - N/A   Scattered Clouds
3:52 AM 30.2 °F 23.4 °F 26.6 °F 86% 29.81 in 10.0 mi NW 6.9 mph - N/A   Mostly Cloudy
4:13 AM 30.2 °F 22.6 °F 26.6 °F 86% 29.81 in 10.0 mi WNW 8.1 mph - N/A   Overcast
4:33 AM 30.2 °F 22.6 °F 26.6 °F 86% 29.81 in 10.0 mi West 8.1 mph - N/A   Scattered Clouds
4:53 AM 30.2 °F 21.9 °F 26.6 °F 86% 29.82 in 10.0 mi West 9.2 mph - N/A   Clear
5:12 AM 30.2 °F 21.3 °F 26.6 °F 86% 29.83 in 10.0 mi West 10.4 mph - N/A   Clear
5:33 AM 30.2 °F 21.3 °F 26.6 °F 86% 29.83 in 10.0 mi WNW 10.4 mph - N/A   Clear
5:53 AM 30.2 °F 21.3 °F 26.6 °F 86% 29.83 in 10.0 mi WNW 10.4 mph - N/A   Clear
6:12 AM 30.2 °F 21.3 °F 26.6 °F 86% 29.84 in 10.0 mi WNW 10.4 mph - N/A   Clear
6:33 AM 30.2 °F 21.9 °F 24.8 °F 80% 29.83 in 10.0 mi NW 9.2 mph - N/A   Clear
6:52 AM 28.4 °F 19.7 °F 24.8 °F 86% 29.84 in 10.0 mi NW 9.2 mph - N/A   Clear
7:13 AM 28.4 °F 20.4 °F 23.0 °F 80% 29.85 in 10.0 mi WNW 8.1 mph - N/A   Clear
7:33 AM 28.4 °F 19.1 °F 24.8 °F 86% 29.86 in 10.0 mi WNW 10.4 mph - N/A   Clear
7:53 AM 28.4 °F 21.2 °F 23.0 °F 80% 29.86 in 10.0 mi WNW 6.9 mph - N/A   Mostly Cloudy
8:13 AM 28.4 °F 22.2 °F 23.0 °F 80% 29.87 in 10.0 mi WNW 5.8 mph - N/A   Mostly Cloudy
8:33 AM 28.4 °F 21.2 °F 23.0 °F 80% 29.88 in 10.0 mi NW 6.9 mph - N/A   Overcast
8:53 AM 28.4 °F 21.2 °F 23.0 °F 80% 29.88 in 10.0 mi NW 6.9 mph - N/A   Overcast
9:13 AM 28.4 °F 23.3 °F 23.0 °F 80% 29.88 in 10.0 mi NW 4.6 mph - N/A   Overcast
9:33 AM 28.4 °F 24.6 °F 24.8 °F 86% 29.89 in 10.0 mi NW 3.5 mph - N/A   Overcast
9:53 AM 28.4 °F - 24.8 °F 86% 29.89 in 10.0 mi Calm Calm - N/A   Overcast
10:13 AM 28.4 °F - 24.8 °F 86% 29.90 in 10.0 mi Calm Calm - N/A   Overcast
10:33 AM 30.2 °F 25.4 °F 24.8 °F 80% 29.91 in 10.0 mi NNW 4.6 mph - N/A   Overcast
10:53 AM 30.2 °F 25.4 °F 26.6 °F 86% 29.92 in 7.0 mi North 4.6 mph - N/A Snow Light Snow
11:13 AM 28.4 °F 23.3 °F 26.6 °F 93% 29.92 in 5.0 mi North 4.6 mph - N/A Snow Light Snow
11:33 AM 28.4 °F 21.2 °F 26.6 °F 93% 29.92 in 3.0 mi North 6.9 mph - N/A Snow Light Snow
11:52 AM 28.4 °F 19.7 °F 24.8 °F 86% 29.92 in 1.0 mi North 9.2 mph - N/A Snow Light Snow
12:13 PM 28.4 °F 18.0 °F 23.0 °F 80% 29.93 in 2.0 mi NNW 12.7 mph 19.6 mph N/A Snow Light Snow
12:33 PM 26.6 °F 16.8 °F 23.0 °F 86% 29.94 in 0.8 mi North 10.4 mph 18.4 mph N/A Snow Light Snow
12:52 PM 26.6 °F 17.5 °F 23.0 °F 86% 29.93 in 1.0 mi North 9.2 mph 16.1 mph N/A Snow Light Snow
1:13 PM 26.6 °F 16.8 °F 21.2 °F 80% 29.94 in 0.8 mi North 10.4 mph 19.6 mph N/A Snow Light Snow
1:33 PM 26.6 °F 16.2 °F 21.2 °F 80% 29.95 in 0.8 mi North 11.5 mph - N/A Snow Light Snow
1:52 PM 23.0 °F 8.3 °F 19.4 °F 86% 29.96 in 1.2 mi North 19.6 mph - N/A Snow Light Snow
2:12 PM 23.0 °F 7.6 °F 19.4 °F 86% 29.98 in 1.5 mi North 21.9 mph - N/A Snow Light Snow
2:33 PM 21.2 °F 4.5 °F 17.6 °F 86% 29.99 in 1.0 mi North 24.2 mph 28.8 mph N/A Snow Light Snow
2:53 PM 19.4 °F 1.8 °F 14.0 °F 80% 30.01 in 1.0 mi North 25.3 mph - N/A Snow Light Snow
3:12 PM 17.6 °F 0.1 °F 12.2 °F 79% 30.03 in 0.8 mi North 23.0 mph 29.9 mph N/A Snow Light Snow
3:33 PM 17.6 °F -0.3 °F 12.2 °F 79% 30.06 in 1.0 mi North 24.2 mph 29.9 mph N/A Snow Light Snow
3:53 PM 14.0 °F -5.5 °F 10.4 °F 86% 30.08 in 0.8 mi North 25.3 mph 33.4 mph N/A Snow Light Snow
4:12 PM 14.0 °F -5.5 °F 8.6 °F 79% 30.11 in 0.5 mi North 25.3 mph 32.2 mph N/A Snow Light Snow
4:33 PM 12.2 °F -7.1 °F 6.8 °F 79% 30.13 in 0.8 mi North 23.0 mph 32.2 mph N/A Snow Light Snow
4:53 PM 10.4 °F -9.5 °F 6.8 °F 85% 30.16 in 0.2 mi North 23.0 mph 34.5 mph N/A Snow Snow
5:12 PM 10.4 °F -10.7 °F 5.0 °F 79% 30.18 in 0.8 mi North 26.5 mph 33.4 mph N/A Snow Light Snow
5:33 PM 10.4 °F -9.9 °F 5.0 °F 79% 30.20 in 1.2 mi North 24.2 mph 29.9 mph N/A Snow Light Snow
5:53 PM 10.4 °F -8.2 °F 5.0 °F 79% 30.22 in 0.8 mi North 19.6 mph 31.1 mph N/A Snow Snow
6:12 PM 8.6 °F -11.4 °F 3.2 °F 79% 30.22 in 0.8 mi North 21.9 mph 25.3 mph N/A Snow Snow
6:33 PM 8.6 °F -11.0 °F 3.2 °F 79% 30.25 in 0.8 mi North 20.7 mph 31.1 mph N/A Snow Light Snow
6:52 PM 6.8 °F -12.4 °F 1.4 °F 79% 30.26 in 0.8 mi North 18.4 mph 31.1 mph N/A Snow Snow
7:13 PM 5.0 °F -15.7 °F -0.4 °F 78% 30.28 in 0.8 mi North 20.7 mph 27.6 mph N/A Snow Snow
7:33 PM 5.0 °F -14.2 °F -0.4 °F 78% 30.30 in 2.5 mi North 17.3 mph 24.2 mph N/A Snow Light Snow
7:53 PM 5.0 °F -16.2 °F -0.4 °F 78% 30.32 in 1.2 mi NNW 21.9 mph 31.1 mph N/A Snow Light Snow
8:13 PM 3.2 °F -19.0 °F -4.0 °F 72% 30.34 in 1.0 mi NNW 23.0 mph 33.4 mph N/A Snow Light Snow
8:32 PM 1.4 °F -22.7 °F -5.8 °F 72% 30.36 in 1.5 mi NNW 26.5 mph 29.9 mph N/A   Haze
8:53 PM -0.4 °F -24.3 °F -7.6 °F 72% 30.36 in - NNW 24.2 mph 34.5 mph N/A   Overcast
9:12 PM -0.4 °F -21.7 °F -7.6 °F 72% 30.37 in - NNW 18.4 mph 31.1 mph N/A   Mostly Cloudy
9:33 PM -2.2 °F -25.7 °F -7.6 °F 78% 30.37 in - NNW 21.9 mph 34.5 mph N/A   Scattered Clouds
9:53 PM -4.0 °F -27.6 °F -9.4 °F 78% 30.38 in - NNW 20.7 mph 31.1 mph N/A   Overcast
10:13 PM -4.0 °F -27.6 °F -9.4 °F 78% 30.39 in - NNW 20.7 mph 28.8 mph N/A   Overcast
10:33 PM -5.8 °F -28.8 °F -13.0 °F 71% 30.39 in - NNW 18.4 mph 28.8 mph N/A   Overcast
10:52 PM -5.8 °F -28.8 °F -13.0 °F 71% 30.41 in - NW 18.4 mph 24.2 mph N/A   Overcast
11:13 PM -5.8 °F -31.0 °F -13.0 °F 71% 30.41 in - NNW 23.0 mph 27.6 mph N/A   Unknown
11:32 PM -7.6 °F -30.5 °F -14.8 °F 71% 30.42 in - NNW 17.3 mph 21.9 mph N/A   Unknown
11:53 PM -7.6 °F -31.1 °F -14.8 °F 71% 30.42 in - NNW 18.4 mph - N/A   Clear